sat.trackr.live / text

‹ back to catalog

TIANQI-18

NORAD 64060 · 2025-105C

PAYLOAD ACTIVE UNKNOWN

§ Identity

Operator
Country
PRC
Launch date
2025-05-19
Launch site
YSLA
Launch vehicle
Mass (kg)
RCS (m²)

External: N2YO · Heavens-Above · Gunter

§ Orbital elements

Epoch: 2026-09-21T13:51:41.157216Z

Period
102.92 min
Inclination
44.9857°
Eccentricity
0.0009336
Mean motion
13.99162852 rev/d
Perigee alt
889.9 km
Apogee alt
903.5 km
Semi-major
7,274.8 km
B*
9.4432e-5
RAAN
313.3735°
Arg perigee
134.7608°
Mean anomaly
225.3985°
Rev number
6,869

§ Raw data

TIANQI-181 64060U 25105C   26264.57755969  .00000009  00000+0  94432-4 0  99962 64060  44.9857 313.3735 0009336 134.7608 225.3985 13.99162852 68699

JSON: /api/v1/satellites/64060 · /tle

For live sub-satellite position, see the globe view (requires WebGL).

§ Visibility from observer

Set your observer location to see the next 7 days of passes ≥ 10°. The values pass through the URL so the page stays shareable.

No JS? Fill the form by hand. The geolocation button needs JavaScript.